Location: Peebles
(55.6412°N, 3.1714°W)
Time: 04:53:00
(UTC+01:00)

deb Agena D - Pass Details

Date: 08 July 2022
Orbit: 797 x 980 km, 99.8° (Epoch: 16 August)

Event Time Altitude Azimuth Distance (km) Brightness Sun altitude
Rises 01:45:37 0° 15° (NNE) 3,387 11.4 -11.6°
Reaches altitude 10° 01:49:39 10° 344° (NNW) 2,488 9.8 -11.6°
Maximum altitude 01:51:27 12° 325° (NW) 2,386 9.3 -11.5°
Drops below altitude 10° 01:53:17 10° 306° (NW) 2,523 9.0 -11.5°
Sets 01:57:29 0° 276° (W) 3,506 9.4 -11.4°
